GW7029 Weather Reports


time (UTC)temp
C
wind
direction
speed
KPH
gust
KPH
rain 1hr
cm
rain 24hr
cm
rain mn
cm
humidity
%
barometer
mb
20260506215403 14 66 0.0 1.6 0.13 0.48 0.48 91 1007.7
20260506214503 15 175 0.0 4.8 0.10 0.46 0.46 91 1007.7
20260506213624 15 214 0.0 4.8 0.10 0.46 0.46 90 1007.7
20260506212703 15 339 0.0 1.6 0.08 0.43 0.43 91 1007.7
20260506211803 15 293 0.0 3.2 0.08 0.43 0.43 91 1007.7
20260506210903 15 203 1.6 11.3 0.05 0.38 0.38 91 1007.7
20260506210003 15 261 1.6 4.8 0.05 0.38 0.38 90 1007.7
20260506205403 15 273 0.0 3.2 0.03 0.36 0.36 91 1007.7
20260506204503 15 232 1.6 4.8 0.05 0.36 0.36 90 1007.7
20260506203603 15 241 1.6 4.8 0.08 0.36 0.36 89 1007.7
20260506202703 15 246 1.6 3.2 0.10 0.36 0.36 90 1007.7
20260506201824 15 300 1.6 4.8 0.10 0.36 0.36 90 1007.7
20260506200903 15 276 1.6 6.4 0.10 0.33 0.33 90 1008.0
20260506200025 15 241 1.6 4.8 0.10 0.33 0.33 90 1008.0
20260506195405 14 229 1.6 4.8 0.10 0.33 0.33 90 1008.0
20260506194504 14 216 1.6 9.7 0.08 0.30 0.30 89 1008.0
20260506193604 14 148 0.0 3.2 0.05 0.28 0.28 89 1008.0
20260506192704 14 36 0.0 3.2 0.03 0.25 0.25 89 1008.0
20260506191805 15 217 1.6 3.2 0.03 0.25 0.25 88 1008.4
20260506190905 15 150 1.6 14.5 0.00 0.23 0.23 88 1008.4
20260506190006 15 177 1.6 3.2 0.03 0.23 0.23 87 1008.7
20260506185405 15 204 1.6 11.3 0.03 0.23 0.23 88 1008.7
20260506184504 15 247 1.6 3.2 0.03 0.23 0.23 87 1008.4
20260506183605 15 95 1.6 9.7 0.05 0.23 0.23 87 1008.7
20260506182705 15 157 1.6 9.7 0.08 0.23 0.23 87 1008.7
20260506181805 15 129 1.6 11.3 0.08 0.23 0.23 87 1009.1
20260506180905 15 111 3.2 11.3 0.13 0.23 0.23 88 1009.1
20260506180005 15 79 1.6 6.4 0.13 0.20 0.20 87 1008.7
20260506175404 15 131 1.6 17.7 0.15 0.20 0.20 85 1008.7
20260506174504 16 143 1.6 17.7 0.18 0.20 0.20 86 1008.7
20260506173604 16 123 1.6 9.7 0.18 0.18 0.18 85 1008.7
20260506172705 16 125 1.6 6.4 0.15 0.15 0.15 85 1008.7
20260506171804 16 69 0.0 4.8 0.15 0.15 0.15 83 1009.4
20260506170925 16 128 0.0 4.8 0.10 0.10 0.10 82 1009.8
20260506170025 16 229 0.0 3.2 0.08 0.08 0.08 78 1009.8
20260506165404 17 263 0.0 3.2 0.05 0.05 0.05 77 1010.1
20260506164505 17 174 1.6 14.5 0.03 0.03 0.03 75 1010.1
20260506163604 18 148 1.6 14.5 0.00 0.00 0.00 73 1010.1
20260506162704 18 75 1.6 6.4 0.00 0.00 0.00 72 1010.1
20260506161804 18 227 1.6 3.2 0.00 0.00 0.00 70 1009.8
20260506160904 18 154 1.6 6.4 0.00 0.00 0.00 69 1010.1
20260506160004 19 183 1.6 4.8 0.00 0.00 0.00 67 1010.1
20260506155405 19 233 1.6 4.8 0.00 0.00 0.00 67 1010.1
20260506154504 19 186 1.6 9.7 0.00 0.00 0.00 66 1010.5
20260506153604 18 235 1.6 6.4 0.00 0.00 0.00 68 1010.5
20260506152725 18 220 1.6 11.3 0.00 0.00 0.00 68 1010.5
20260506151804 18 200 1.6 12.9 0.00 0.00 0.00 67 1010.5
20260506150904 18 208 1.6 14.5 0.00 0.00 0.00 67 1010.5
20260506150004 18 184 1.6 14.5 0.00 0.00 0.00 68 1010.8
20260506145404 18 258 1.6 6.4 0.00 0.00 0.00 68 1010.5
20260506144504 18 218 1.6 9.7 0.00 0.00 0.00 68 1010.5
20260506143604 18 122 1.6 16.1 0.00 0.00 0.00 68 1010.5
20260506142704 18 167 1.6 4.8 0.00 0.00 0.00 71 1010.8
20260506141804 17 247 1.6 6.4 0.00 0.00 0.00 71 1010.8
20260506140904 17 262 1.6 12.9 0.00 0.00 0.00 71 1010.8
20260506140004 17 199 1.6 12.9 0.00 0.00 0.00 71 1010.5
20260506135404 17 226 1.6 4.8 0.00 0.00 0.00 73 1010.5
20260506134504 17 246 1.6 4.8 0.00 0.00 0.00 74 1010.5
20260506133604 16 241 1.6 6.4 0.00 0.00 0.00 75 1010.5
20260506132704 16 156 1.6 14.5 0.00 0.00 0.00 75 1010.5
20260506131825 16 89 1.6 11.3 0.00 0.00 0.00 77 1010.5
20260506130905 16 217 1.6 6.4 0.00 0.00 0.00 77 1010.5
20260506130005 16 236 1.6 11.3 0.00 0.00 0.00 78 1010.8
20260506125404 15 226 1.6 11.3 0.00 0.00 0.00 78 1010.5
20260506124504 15 163 1.6 6.4 0.00 0.00 0.00 78 1010.8
20260506123604 15 217 1.6 6.4 0.00 0.00 0.00 79 1010.5
20260506122704 15 130 1.6 4.8 0.00 0.00 0.00 78 1011.2
20260506121804 15 220 1.6 4.8 0.00 0.00 0.00 79 1011.2
20260506120904 15 216 0.0 4.8 0.00 0.00 0.00 79 1011.2
20260506120005 15 184 1.6 3.2 0.00 0.00 0.00 80 1011.2
20260506115404 15 257 0.0 3.2 0.00 0.00 0.00 80 1011.2
20260506114504 14 245 0.0 4.8 0.00 0.00 0.00 81 1011.2
20260506113604 14 172 1.6 4.8 0.00 0.00 0.00 82 1011.2
20260506112704 14 238 1.6 4.8 0.00 0.00 0.00 82 1011.2
20260506111804 14 244 1.6 4.8 0.00 0.00 0.00 82 1011.2
20260506110904 13 188 1.6 11.3 0.00 0.00 0.00 83 1011.2
20260506110004 13 230 0.0 4.8 0.00 0.00 0.00 83 1010.8
20260506105404 13 212 0.0 1.6 0.00 0.00 0.00 84 1011.2
20260506104504 13 190 0.0 3.2 0.00 0.00 0.00 85 1011.2
20260506103604 12 270 0.0 3.2 0.00 0.00 0.00 85 1011.5
20260506102725 12 274 0.0 1.6 0.00 0.00 0.00 85 1011.2
20260506101804 12 292 0.0 1.6 0.00 0.00 0.00 84 1011.2
20260506100904 12 300 0.0 3.2 0.00 0.00 0.00 84 1011.2
20260506100004 12 316 0.0 3.2 0.00 0.00 0.00 83 1010.8
20260506095425 12 7 0.0 3.2 0.00 0.00 0.00 83 1010.8
20260506094504 12 51 0.0 3.2 0.00 0.00 0.00 81 1010.8
20260506093625 12 244 0.0 1.6 0.00 0.00 0.00 79 1010.8
20260506092725 12 229 0.0 1.6 0.00 0.00 0.00 81 1010.8
20260506091804 12 186 0.0 1.6 0.00 0.00 0.00 82 1010.8
20260506090904 12 226 0.0 3.2 0.00 0.00 0.00 81 1010.8
20260506090025 13 224 0.0 3.2 0.00 0.00 0.00 80 1011.2
20260506085404 13 147 0.0 3.2 0.00 0.00 0.00 81 1011.2
20260506084504 13 153 0.0 3.2 0.00 0.00 0.00 79 1010.8
20260506083604 13 227 0.0 1.6 0.00 0.00 0.00 80 1010.8
20260506082704 13 261 0.0 1.6 0.00 0.00 0.00 79 1010.8
20260506081825 13 278 0.0 3.2 0.00 0.00 0.00 79 1010.8
20260506080904 13 272 0.0 1.6 0.00 0.00 0.00 78 1011.2
20260506072704 13 168 0.0 3.2 0.00 0.00 0.00 76 1011.2
20260506071804 13 252 0.0 4.8 0.00 0.00 0.00 75 1010.8
20260506070904 13 293 0.0 3.2 0.00 0.00 0.00 75 1010.8
20260506061804 15 266 0.0 1.6 0.00 0.00 0.00 70 1011.2
20260506060904 15 279 1.6 3.2 0.00 0.00 0.00 70 1011.2
20260506050904 16 234 0.0 4.8 0.00 0.00 0.00 66 1011.5
20260506044504 16 254 1.6 6.4 0.00 0.00 0.00 65 1011.5
20260506043604 16 270 1.6 3.2 0.00 0.00 0.00 66 1011.5
20260506042703 16 245 0.0 3.2 0.00 0.00 0.00 65 1011.5
20260506041804 16 279 0.0 3.2 0.00 0.00 0.00 65 1011.5
20260506040904 16 236 0.0 3.2 0.00 0.00 0.00 65 1011.5
20260506040004 16 242 1.6 4.8 0.00 0.00 0.00 64 1011.5
20260506035404 16 260 0.0 4.8 0.00 0.00 0.00 64 1011.5
20260506034504 16 227 1.6 9.7 0.00 0.00 0.00 64 1011.5
20260506033603 16 299 1.6 9.7 0.00 0.00 0.00 64 1011.5
20260506032704 16 277 1.6 6.4 0.00 0.00 0.00 63 1011.5
20260506031824 16 284 1.6 6.4 0.00 0.00 0.00 64 1011.5
20260506030904 16 31 0.0 4.8 0.00 0.00 0.00 63 1011.9
20260506030025 16 323 1.6 3.2 0.00 0.00 0.00 63 1011.5
20260506025403 16 37 1.6 9.7 0.00 0.00 0.00 62 1011.5
20260506024503 16 239 0.0 1.6 0.00 0.00 0.00 61 1011.5
20260506023604 17 230 0.0 1.6 0.00 0.00 0.00 60 1011.2
20260506022704 17 284 0.0 3.2 0.00 0.00 0.00 60 1011.5
20260506021824 17 271 0.0 4.8 0.00 0.00 0.00 60 1011.2
20260506020903 17 266 1.6 3.2 0.00 0.00 0.00 60 1011.5
20260506020004 17 221 0.0 1.6 0.00 0.00 0.00 61 1011.5
20260506015404 17 213 0.0 3.2 0.00 0.00 0.00 61 1011.5
20260506014504 17 267 0.0 3.2 0.00 0.00 0.00 61 1011.2
20260506013603 17 294 0.0 1.6 0.00 0.00 0.00 60 1011.5
20260506012704 17 294 0.0 1.6 0.00 0.00 0.00 59 1011.2
20260506011803 17 294 0.0 1.6 0.00 0.00 0.00 58 1011.2
20260506010903 17 297 0.0 1.6 0.00 0.00 0.00 58 1011.2
20260506010024 17 290 1.6 3.2 0.00 0.00 0.00 58 1010.8
20260506005403 17 275 0.0 3.2 0.00 0.00 0.00 57 1010.8
20260506004504 18 277 0.0 3.2 0.00 0.00 0.00 57 1010.8
20260506003603 18 274 0.0 1.6 0.00 0.00 0.00 57 1010.5
20260506002703 18 195 1.6 6.4 0.00 0.00 0.00 56 1010.5
20260506001803 18 207 0.0 3.2 0.00 0.00 0.00 56 1010.5
20260506000903 18 223 1.6 6.4 0.00 0.00 0.00 55 1010.1
20260506000024 18 284 1.6 6.4 0.00 0.00 0.00 54 1010.1
20260505235403 19 234 1.6 9.7 0.00 0.00 0.00 54 1010.1
20260505234503 19 221 1.6 11.3 0.00 0.00 0.00 53 1009.8
20260505233604 20 218 1.6 9.7 0.00 0.00 0.00 52 1009.8
20260505232703 20 163 1.6 11.3 0.00 0.00 0.00 51 1009.4
20260505231825 20 276 1.6 4.8 0.00 0.00 0.00 50 1009.4
20260505230903 21 193 1.6 4.8 0.00 0.00 0.00 49 1009.4
20260505230003 21 217 1.6 4.8 0.00 0.00 0.00 48 1009.4
20260505225424 22 229 1.6 6.4 0.00 0.00 0.00 47 1009.4
20260505224503 22 253 1.6 6.4 0.00 0.00 0.00 46 1009.4
20260505223603 22 211 3.2 12.9 0.00 0.00 0.00 45 1009.1
20260505222703 23 243 1.6 14.5 0.00 0.00 0.00 44 1009.1
20260505221824 23 173 3.2 14.5 0.00 0.00 0.00 44 1008.7
20260505220924 23 159 4.8 20.9 0.00 0.00 0.00 44 1008.7
20260505220024 23 191 3.2 16.1 0.00 0.00 0.00 44 1008.7